When you browse on this site, cookies collect data to enhance your experience and personalize the content and advertising you see.
Visit our Privacy Policy to learn more. By continuing to use the site, you agree to this use of cookies and data.
  • In Hungary
  • List of Countries
  • For 7 days
  • Water Temperature
  • Satellite Maps
  • Weather Map
  • News
  • Weather Widgets
  • user-avatar
    Login

    Hourly Weather Sao Jose dos Pinhais

    Today, 17 November, Saturday

    Time Temperature Precipitation Wind Pressure Humidity
    00:00 +16°C° 0 mm 1 mps 688 mmHg 94%
    01:00 +15°C° 0 mm 1 mps 688 mmHg 94%
    02:00 +15°C° 0 mm 1 mps 687 mmHg 94%
    03:00 +15°C° 0 mm 1 mps 687 mmHg 95%
    04:00 +15°C° 0 mm 1 mps 687 mmHg 95%
    05:00 +14°C° 0 mm 1 mps 687 mmHg 94%
    06:00 +14°C° 0 mm 1 mps 687 mmHg 94%
    07:00 +16°C° 0 mm 1 mps 688 mmHg 83%
    08:00 +18°C° 0 mm 2 mps 688 mmHg 72%
    09:00 +20°C° 0 mm 2 mps 689 mmHg 61%
    10:00 +23°C° 0 mm 2 mps 689 mmHg 55%
    11:00 +25°C° 0 mm 2 mps 689 mmHg 50%
    12:00 +27°C° 0 mm 2 mps 689 mmHg 44%
    13:00 +27°C° 0 mm 2 mps 688 mmHg 46%
    14:00 +28°C° 0 mm 2 mps 688 mmHg 47%
    15:00 +28°C° 0 mm 2 mps 687 mmHg 49%
    16:00 +26°C° 0 mm 2 mps 687 mmHg 57%
    17:00 +25°C° 0 mm 2 mps 686 mmHg 65%
    18:00 +23°C° 0 mm 2 mps 686 mmHg 73%
    19:00 +21°C° 0 mm 2 mps 686 mmHg 79%
    20:00 +19°C° 0 mm 2 mps 686 mmHg 86%
    21:00 +19°C° 0 mm 1 mps 686 mmHg 92%
    22:00 +19°C° 0 mm 1 mps 685 mmHg 93%
    23:00 +18°C° 0 mm 1 mps 685 mmHg 95%

    Tomorrow, 18 November, Sunday

    Time Temperature Precipitation Wind Pressure Humidity
    00:00 +18°C° 0 mm 1 mps 685 mmHg 96%
    01:00 +18°C° 0 mm 1 mps 684 mmHg 95%
    02:00 +18°C° 0 mm 1 mps 684 mmHg 95%
    03:00 +18°C° 0 mm 1 mps 683 mmHg 95%
    04:00 +19°C° 0 mm 1 mps 683 mmHg 93%
    05:00 +19°C° 0 mm 1 mps 683 mmHg 92%
    06:00 +20°C° 0 mm 1 mps 683 mmHg 91%
    07:00 +20°C° 0 mm 2 mps 684 mmHg 85%
    08:00 +23°C° 0 mm 2 mps 684 mmHg 79%
    09:00 +25°C° 0 mm 3 mps 685 mmHg 73%
    10:00 +26°C° 0 mm 3 mps 684 mmHg 69%
    11:00 +27°C° 0 mm 3 mps 684 mmHg 65%
    12:00 +28°C° 0 mm 3 mps 684 mmHg 61%
    13:00 +27°C° 1.8 mm 3 mps 684 mmHg 70%
    14:00 +26°C° 1.8 mm 2 mps 684 mmHg 78%
    15:00 +26°C° 1.8 mm 2 mps 683 mmHg 87%
    16:00 +24°C° 3 mm 2 mps 683 mmHg 90%
    17:00 +23°C° 3 mm 1 mps 683 mmHg 93%
    18:00 +22°C° 3 mm 1 mps 683 mmHg 95%
    19:00 +22°C° 1.1 mm 1 mps 683 mmHg 96%
    20:00 +21°C° 1.1 mm 1 mps 684 mmHg 97%
    21:00 +21°C° 1.1 mm 1 mps 684 mmHg 97%
    22:00 +21°C° 0.2 mm 1 mps 684 mmHg 97%
    23:00 +19°C° 0.2 mm 2 mps 685 mmHg 98%

    Day after tomorrow, 19 November, Monday

    Time Temperature Precipitation Wind Pressure Humidity
    00:00 +19°C° 0.2 mm 2 mps 685 mmHg 98%
    01:00 +19°C° 0.2 mm 2 mps 684 mmHg 97%
    02:00 +18°C° 0.2 mm 2 mps 684 mmHg 97%
    03:00 +17°C° 0.2 mm 2 mps 684 mmHg 97%
    04:00 +17°C° 0.2 mm 2 mps 684 mmHg 96%
    05:00 +16°C° 0.2 mm 3 mps 684 mmHg 96%
    06:00 +16°C° 0.2 mm 3 mps 685 mmHg 96%
    07:00 +16°C° 0.1 mm 2 mps 685 mmHg 95%
    08:00 +15°C° 0.1 mm 2 mps 686 mmHg 94%
    09:00 +15°C° 0.1 mm 2 mps 686 mmHg 93%
    10:00 +16°C° 0 mm 2 mps 686 mmHg 87%
    11:00 +18°C° 0 mm 2 mps 687 mmHg 81%
    12:00 +19°C° 0 mm 2 mps 687 mmHg 75%
    13:00 +19°C° 0 mm 2 mps 686 mmHg 74%
    14:00 +19°C° 0 mm 2 mps 686 mmHg 73%
    15:00 +19°C° 0 mm 2 mps 685 mmHg 72%
    16:00 +18°C° 0 mm 2 mps 685 mmHg 77%
    17:00 +17°C° 0 mm 2 mps 685 mmHg 82%
    18:00 +16°C° 0 mm 2 mps 685 mmHg 86%
    19:00 +16°C° 0 mm 2 mps 686 mmHg 88%
    20:00 +15°C° 0 mm 2 mps 686 mmHg 89%
    21:00 +15°C° 0 mm 2 mps 687 mmHg 91%
    22:00 +15°C° 0 mm 2 mps 687 mmHg 91%
    23:00 +15°C° 0 mm 1 mps 687 mmHg 92%

    20 November, Tuesday

    Time Temperature Precipitation Wind Pressure Humidity
    00:00 +15°C° 0 mm 1 mps 687 mmHg 92%
    01:00 +15°C° 0 mm 1 mps 687 mmHg 93%
    02:00 +14°C° 0 mm 1 mps 686 mmHg 93%
    03:00 +14°C° 0 mm 1 mps 686 mmHg 94%
    04:00 +14°C° 0 mm 1 mps 686 mmHg 94%
    05:00 +14°C° 0 mm 1 mps 686 mmHg 93%
    06:00 +14°C° 0 mm 1 mps 686 mmHg 93%
    07:00 +15°C° 0 mm 1 mps 687 mmHg 89%
    08:00 +16°C° 0 mm 1 mps 687 mmHg 84%
    09:00 +17°C° 0 mm 2 mps 688 mmHg 79%
    10:00 +19°C° 0 mm 2 mps 688 mmHg 74%
    11:00 +20°C° 0 mm 2 mps 688 mmHg 68%
    12:00 +21°C° 0 mm 2 mps 688 mmHg 63%
    13:00 +23°C° 0 mm 2 mps 688 mmHg 63%
    14:00 +23°C° 0 mm 2 mps 687 mmHg 62%
    15:00 +23°C° 0 mm 2 mps 687 mmHg 62%
    16:00 +21°C° 0 mm 2 mps 687 mmHg 68%
    17:00 +19°C° 0 mm 2 mps 687 mmHg 73%
    18:00 +18°C° 0 mm 2 mps 686 mmHg 79%
    19:00 +16°C° 0 mm 2 mps 687 mmHg 84%
    20:00 +15°C° 0 mm 2 mps 687 mmHg 88%
    21:00 +14°C° 0 mm 1 mps 688 mmHg 93%
    22:00 +14°C° 0 mm 1 mps 688 mmHg 94%
    23:00 +13°C° 0 mm 1 mps 687 mmHg 95%

    21 November, Wednesday

    Time Temperature Precipitation Wind Pressure Humidity
    00:00 +13°C° 0 mm 1 mps 687 mmHg 96%
    01:00 +13°C° 0 mm 1 mps 687 mmHg 96%
    02:00 +13°C° 0 mm 1 mps 687 mmHg 96%
    03:00 +13°C° 0 mm 1 mps 686 mmHg 97%
    04:00 +13°C° 0 mm 1 mps 686 mmHg 96%
    05:00 +13°C° 0 mm 1 mps 687 mmHg 95%
    06:00 +14°C° 0 mm 1 mps 687 mmHg 94%
    07:00 +15°C° 0 mm 1 mps 688 mmHg 89%
    08:00 +18°C° 0 mm 1 mps 688 mmHg 84%
    09:00 +19°C° 0 mm 1 mps 689 mmHg 79%
    10:00 +20°C° 0 mm 1 mps 688 mmHg 76%
    11:00 +20°C° 0 mm 2 mps 688 mmHg 73%
    12:00 +21°C° 0 mm 2 mps 688 mmHg 70%
    13:00 +21°C° 0 mm 2 mps 688 mmHg 71%
    14:00 +21°C° 0 mm 2 mps 687 mmHg 72%
    15:00 +21°C° 0 mm 2 mps 687 mmHg 73%
    16:00 +20°C° 0 mm 2 mps 686 mmHg 76%
    17:00 +19°C° 0 mm 2 mps 686 mmHg 80%
    18:00 +19°C° 0 mm 2 mps 686 mmHg 83%
    19:00 +19°C° 0 mm 1 mps 686 mmHg 87%
    20:00 +18°C° 0 mm 1 mps 686 mmHg 91%
    21:00 +16°C° 0 mm 1 mps 687 mmHg 95%
    22:00 +16°C° 0 mm 1 mps 686 mmHg 95%
    23:00 +16°C° 0 mm 1 mps 686 mmHg 95%

    22 November, Thursday

    Time Temperature Precipitation Wind Pressure Humidity
    00:00 +16°C° 0 mm 1 mps 686 mmHg 96%
    01:00 +16°C° 0.1 mm 1 mps 686 mmHg 96%
    02:00 +16°C° 0.1 mm 1 mps 685 mmHg 96%
    03:00 +15°C° 0.1 mm 0 mps 685 mmHg 96%
    04:00 +15°C° 0.2 mm 0 mps 685 mmHg 97%
    05:00 +15°C° 0.2 mm 0 mps 685 mmHg 97%
    06:00 +15°C° 0.2 mm 0 mps 685 mmHg 97%
    07:00 +19°C° 0.2 mm 1 mps 685 mmHg 94%
    08:00 +20°C° 0.2 mm 1 mps 686 mmHg 90%
    09:00 +21°C° 0.2 mm 1 mps 686 mmHg 87%
    10:00 +22°C° 0.1 mm 1 mps 686 mmHg 82%
    11:00 +23°C° 0.1 mm 1 mps 686 mmHg 77%
    12:00 +25°C° 0.1 mm 1 mps 686 mmHg 72%
    13:00 +25°C° 0.8 mm 1 mps 685 mmHg 73%
    14:00 +25°C° 0.8 mm 1 mps 685 mmHg 73%
    15:00 +25°C° 0.8 mm 2 mps 684 mmHg 74%
    16:00 +25°C° 0.3 mm 1 mps 684 mmHg 77%
    17:00 +24°C° 0.3 mm 1 mps 684 mmHg 81%
    18:00 +23°C° 0.3 mm 1 mps 684 mmHg 84%
    19:00 +22°C° 0 mm 1 mps 684 mmHg 88%
    20:00 +21°C° 0 mm 1 mps 684 mmHg 93%
    21:00 +20°C° 0 mm 1 mps 684 mmHg 97%
    22:00 +19°C° 0 mm 1 mps 684 mmHg 97%
    23:00 +19°C° 0 mm 1 mps 684 mmHg 98%
    Show more